Location: Praha
(50.0830°N, 14.4670°E)
Time: 10:23:08
(UTC+01:00)

ISS - Pass Details

Date: 27 January 2023
Orbit: 412 x 423 km, 51.6° (Epoch: 06 February)

Event Time Altitude Azimuth Distance (km) Brightness Sun altitude
Rises 19:14:04 0° 286° (WNW) 2,383 1.3 -23.4°
Reaches altitude 10° 19:16:10 10° 285° (WNW) 1,517 0.1 -23.8°
Enters shadow 19:18:31 41° 282° (WNW) 630 -2.5 -24.1°
